Погода в Нижневартовске

Погода в Нижневартовске : погода сейчас, прогноз погоды и архив. Всё, что Вы хотите узнать о погоде в Нижневартовске!

Поиск расширенной информации на нашем сайте:

Полезная информация: Смотрите Преобразователь частоты 3,7 кВт на сайте.

Другие новости

Новости СМИ2

Главная страница сайта

Новости сайта

03.07.2017

Напоминаем, что на нашем специализированном сайте Метеоцентр.Азия вы можете получить высокодетализированные автоматические прогнозы погоды по пунктам России, СНГ и мира в авиационном формате (включающие направление и скорость ветра, видимость, явления погоды, количество и форму облачности, нижнюю и верхнюю границу облачности).

Рекомендуем: Отзывы: Горящие туры из кемерово - сезонные скидки.

Погода в Нижневартовске - сегодня

Время (UTC), дата Ветер
(°,м/с) 
Видим.   Явления Облачность Т
(°С)
Тd
(°С)
f(%) Тe
(°С)
Pmin
(гПа)
dP
(гПа)
Po
(мм)
O2
(г/м3)
Тmin Tmax R s Состояние
почвы
06 18.07.17 030 (СВ) 20000 м    9/0 верхняя 
[Ci sp]
+22.2 +10.6 48 +24  1014.9  -0.7  756  280           
09 18.07.17 290 (З) 20000 м    10/0 средняя, верхняя 
[Ac trans|Ci sp]
+24.2 +9.8 40 +25  1013.3  -1.6  755  278           
12 18.07.17 040 (СВ) 5-10{18}  4200 м  гроза, ливневой дождь  10/5 700 м кучево-дожд., средняя 
[Cb calv|Ac trans]
+15.8 +14.6 93 +24  1013.4  755  285           
15 18.07.17 250 (З) 2{10}  20000 м  {гроза, ливн. осадки}  10/3 600 м кучево-дожд., средняя, верхняя 
[Cb calv|Ac trans|Ci sp]
+17.5 +16.2 92 +29  1012.5  -0.9  755  282    +25.2     
18 18.07.17 360 (С) 5000 м  дымка{ливн. осадки, гроза}  10/0 средняя, верхняя 
[Ac trans|Ci fib]
+15.1 +13.8 92 +23  1012.3  -0.4  754  285           
21 18.07.17 360 (С) 20000 м    10/0 средняя, верхняя 
[Ac trans|Ci fib]
+13.9 +12.8 93 +19  1012.2  -0.1  754  287           
00 19.07.17 040 (СВ) 20000 м    3/0 верхняя 
[Ci fib]
+15 +13.7 92 +21  1012.2  754  285           
03 19.07.17 040 (СВ) 20000 м    8/0 средняя 
[Ac trans]
+18.8 +13.7 72 +25  1012.4  0.4  755  282  +13.4    0.4     
06 19.07.17 030 (СВ) 20000 м    9/0 средняя 
[Ac trans]
+20.5 +13.9 66 +27  1012  -0.4  754  280           
09 19.07.17 060 (СВ) 5{11}  10 км  слаб. ливневой дождь  10/6 900 м кучево-дожд., средняя 
[Cb calv|Ac trans]
+18.6 +14.3 76 +26  1011.9  -0.1  754  282           
12 19.07.17 070 (В) 20000 м  {ливн. осадки}  6/3 1000 м кучево-дожд., верхняя 
[Cb calv|Ci fib]
+21.8 +13.7 60 +28  1011.2  -0.6  754  279           
15 19.07.17 020 (С) 20000 м    8/0 верхняя 
[Ci sp]
+20.2 +13.2 64 +26  1011.8  0.5  754  280    +22.7  0.5     
18 19.07.17 350 (С) 20000 м    ясно 
+14.9 +13.6 92 +22  1012.5  0.5  754  286           
21 19.07.17 360 (С) 20000 м    ясно 
+15.3 +13.5 89 +22  1012.2  -0.3  754  285           
00 20.07.17 360 (С) 20000 м    3/0 верхняя 
[Ci sp]
+16.5 +14.2 86 +24  1012.2  0.2  754  284           
03 20.07.17 350 (С) 20000 м    3/0 средняя 
[Ac trans]
+22.6 +15.2 63 +31  1012.1  754  278  +14.2         
06 20.07.17 010 (С) 20000 м    10/3 1000 м верхняя 
[Cu hum|Ci sp]
+25.1 +12.4 45 +29  1012  -0.1  754  276           
09 20.07.17 040 (СВ) 20000 м    10/3 600 м кучево-дожд., средняя, верхняя 
[Cb calv|Ac trans|Ci sp]
+25.4 +11.5 42 +28  1011.4  -0.6  754  276           
12 20.07.17 030 (СВ) 20000 м  гроза без осадков  10/4 1000 м кучево-дожд., средняя, верхняя 
[Cb calv|Ac trans|Ci fib]
+26.9 +11.1 37 +29  1011.1  -0.2  754  274           
15 20.07.17 010 (С) 20000 м  гроза без осадков  10/4 1000 м кучево-дожд., средняя, верхняя 
[Cb calv|Ac trans|Ci fib]
+21.7 +15.1 66 +30  1011.8  0.6  754  278    +26.9       
18 20.07.17 050 (СВ) 20000 м  {гроза}  3/0 средняя 
[Ac trans]
+15.3 +12.9 86 +21  1012.8  0.7  755  285           
21 20.07.17 040 (СВ) 20000 м    ясно 
+14.1 +12.8 92 +20  1012.9  0.1  755  287           
00 21.07.17 090 (В) 20000 м    6/0 средняя, верхняя 
[Ac trans|Ci sp]
+14.8 +13.7 93 +22  1013.7  0.8  755  286           
03 21.07.17 070 (В) 20000 м    ясно 
+20.2 +13.4 65 +26  1014.1  0.6  756  281  +13.6         
06 21.07.17 020 (С) 20000 м    ясно 
+24.1 +11.8 46 +28  1014.2  0.2  756  278           
Время (UTC), дата Ветер
(°,м/с) 
Видим.   Явления Облачность Т
(°С)
Тd
(°С)
f(%) Тe
(°С)
Pmin
(гПа)
dP
(гПа)
Po
(мм)
O2
(г/м3)
Тmin Tmax R s Состояние
почвы

Для получения пояснительной информации подведите курсор к названию столбца.

ПОГОДА в Нижневартовске - архив

Всё, что Вы хотите узнать о погоде в Нижневартовске - удобно и подробно!

Выберите нужную дату (начиная с 1 января 2015* года) и нажмите кнопку "Найти".
Будут отображены архивные сводки погоды по пункту Нижневартовск, начиная с указанной даты.


Отображать данные в формате CSV (для использования в таблицах Excel)


Внимание! Наш архив погоды предназначен исключительно для личного некоммерческого использования в познавательных целях. Если Вам необходимы официальные справки о состоянии погоды (для производственных, юридических, коммерческих и т.п. целей), обращайтесь в органы Росгидромета.

*Примечание: данная дата относится к архиву по метеостанциям СССР (Россия, СНГ, Балтия).
Архив по метеостанциям Зарубежной Европы и Азии (кроме Китая) хранится 10 дней, по другим регионам земного шара (Китай, Африка, Америка, Австралия, Океания) - 1 день.

Нижневартовск - район местоположения метеостанции


Название, широта, долгота, высота метеостанции:
Нижневартовск 60.8°ш. 76.7°д. 44 м над ур. моря [Российская Федерация]

Дополнительная информация

В oтличие oт бoльшинства пoгoдных сайтoв мы публикуем пoдрoбную метеoинфoрмацию в детальнoм прoфессиoнальнoм фoрмате.

Характеристики температуры и влажнoсти вoздуха измеряются на высoте 2 м в тени вдали oт зданий и деревьев.
Скoрoсть ветра измеряется на высoте 10 м (на урoвне рoста челoвека скoрoсть ветра ниже в 1.5-2 раза). Если метеoстанция нахoдится в гoрoде или в лесу, тo скoрoсть ветра занижена на 2-4 м/с пo сравнению с oткрытым местoм. Скoрoсть ветра над акватoриями крупных рек и oзёр, а также на вершинах хoлмoв на 2-5 м/с выше, чем в oбычных услoвиях.
Атмoсфернoе давление в разных тoчках местнoсти мoжет значительнo oтличаться oт давления на метеoстанции, в зависимoсти oт услoвий рельефа (при пoдъёме на 10 м давление пoнижается примернo на 1 мм рт.ст.).